Regional Weather Roundup
Issued by NWS Mobile, AL

Home | Current Version | Previous Version | Text Only | Print | Product List | Glossary On
Versions: 1 2 3 4 5 6 7 8 9 10 11 12 13 14 15 16 17 18 19 20 21 22 23 24 25 26 27
000
ASUS44 KMOB 290312
RWRMOB
REGIONAL WEATHER ROUNDUP
NATIONAL WEATHER SERVICE MOBILE AL
1000 PM CDT SAT MAY 28 2016

NOTE: "FAIR" INDICATES FEW OR NO CLOUDS BELOW 12,000 FEET WITH NO
      SIGNIFICANT WEATHER AND/OR OBSTRUCTIONS TO VISIBILITY.

  * THESE STATIONS ARE PART OF THE UNIVERSITY OF SOUTH ALABAMA
    MESONET AND ARE NOT UNDER NWS OR FAA QUALITY CONTROL.

ALZ061>064-290400-
COASTAL ALABAMA

CITY           SKY/WX    TMP DP  RH WIND       PRES   REMARKS
MOBILE REG APT CLOUDY    71  68  90 CALM      30.08R
BROOKLEY FIELD MOCLDY    72  68  87 SW3       30.08R
USA CAMPUS*    NOT AVBL
DOG RIVER*     NOT AVBL


CITY           SKY/WX    TMP DP  RH WIND       PRES   REMARKS
MOUNT VERNON*  NOT AVBL
SARALAND*      NOT AVBL
BAY MINETTE*   NOT AVBL
LOXLEY*        NOT AVBL
ROBERTSDALE*   NOT AVBL
FAIRHOPE*      NOT AVBL
ELBERTA*       NOT AVBL
FOLEY*         NOT AVBL
GRAND BAY*     NOT AVBL
DAUPHIN ISLND* NOT AVBL
BON SCOUR NWR* NOT AVBL
GULF SHORES    PTCLDY    69  69 100 E8        30.07R

$$

ALZ051>060-290400-
INTERIOR SOUTHWEST AND SOUTH CENTRAL ALABAMA

CITY           SKY/WX    TMP DP  RH WIND       PRES   REMARKS
GREENVILLE     PTCLDY    75  70  84 W3        30.08R
EVERGREEN      PTCLDY    73  69  87 CALM      30.08R
CASTLEBERRY*   NOT AVBL
ATMORE*        NOT AVBL
DIXIE*         NOT AVBL
ANDALUSIA/OPP  CLOUDY    77  70  79 CALM      30.08R
ANDALUSIA*     NOT AVBL
FLORALA APT    PTCLDY    71  68  90 CALM      30.09S
FLORALA*       NOT AVBL

$$

FLZ001>006-290400-
WESTERN FLORIDA PANHANDLE

CITY           SKY/WX    TMP DP  RH WIND       PRES   REMARKS
PENSACOLA      CLEAR     74  67  78 CALM      30.07R
NAS PENSACOLA  NOT AVBL
MILTON         PTCLDY    70  67  90 CALM      30.08R
WHTNG S FIELD    N/A    N/A N/A N/A MISG      30.07S


CITY           SKY/WX    TMP DP  RH WIND       PRES   REMARKS
WALNUT HILL*   NOT AVBL
JAY*           NOT AVBL
CRESTVIEW      CLEAR     74  65  73 CALM      30.09R
VALPARAISO     NOT AVBL
DESTIN         CLEAR     78  67  68 CALM      30.07R

$$

MSZ076-079-290400-
INTERIOR SOUTHEAST MISSISSIPPI

CITY           SKY/WX    TMP DP  RH WIND       PRES   REMARKS
LEAKESVILLE*   NOT AVBL
AGRICOLA*      NOT AVBL

$$

MARINE OBSERVATIONS

STATION/POSITION TIME  TEMP    WIND        PRES    WAVE
                       AIR SEA DIR/SP/G            HT/PER
                 (UTC) (F)     (DEG/KT/KT) (MB)    (FT/S)
PASCAGOULA       0200                      1017.7R
PETIT BOIS ISLND 0200                      1018.4R
KATRINA CUT      0200   79     180/  4     1018.3S
CEDAR POINT      0200   78     170/  5     1017.6S
E DAUPHIN ISLAND 0300   79     180/  4/  5 1018.0R
MIDDLE BAY LIGHT 0200   79     180/  6     1018.3R
USCG MOBILE BAY  0200                      1018.4R
STATE DOCKS      0200                      1017.8R
MEAHER PARK      0200   78     130/  3     1017.3R
WEEKS BAY        0100   75                   N/A
FORT MORGAN      0200                      1017.4R
12 S ORANGE BCH  0250   79 80  180/  2/  2 1017.5R   2/ 5
PENSACOLA BAY    0200                      1018.1S
64 S DAUPHIN ISL 0200   79 79  150/  4/  4 1017.8R

$$

SELECTED LOCATIONS ACROSS THE REGION

CITY           SKY/WX    TMP DP  RH WIND       PRES   REMARKS
NEW ORLEANS    PTCLDY    74  70  87 CALM      30.06S
GULFPORT       CLEAR     73  71  93 CALM      30.06R
PASCAGOULA AP  PTCLDY    69  68  96 CALM      30.07R
PASCAGOULA*    NOT AVBL
HATTIESBURG    CLOUDY    74  68  81 CALM      30.08R
LAUREL         CLOUDY    72  66  83 CALM      30.09S
MERIDIAN       CLOUDY    74  67  78 CALM      30.09R
JACKSON        CLEAR     71  67  87 CALM      30.07S
MONTGOMERY     CLOUDY    77  69  76 CALM      30.07S
TROY           PTCLDY    73  69  87 CALM      30.08S
KINSTON*       NOT AVBL
GENEVA*        NOT AVBL
ASHFORD*       NOT AVBL
DOTHAN         CLEAR     77  67  71 W5        30.10S
PANAMA CITY    CLEAR     74  71  91 CALM      30.06R

$$





USA.gov is the U.S. government's official web portal to all federal, state and local government web resources and services.